{"data":{"norad_id":89213,"epoch":"2026-09-18T01:45:53.360928Z","epoch_age_seconds":224046,"freshness":"STALE","line1":"1 89213U          26261.07353427  .00000304  00000+0  21795-3 0  9994","line2":"2 89213  98.7431 124.1131 0228339  79.0957 283.5806 13.91845457491524","mean_motion":13.91845457,"eccentricity":0.0228339,"inclination_deg":98.7431,"raan_deg":124.1131,"arg_perigee_deg":79.0957,"mean_anomaly_deg":283.5806,"bstar":0.00021795,"rev_number":49152,"period_min":103.45976219973,"perigee_km":755.4761758559,"apogee_km":1088.8651665222,"semimajor_km":7300.3076711891,"source":"CELESTRAK","updated_at":"2026-09-20T09:00:32.483825Z"}}